TimeCEST,TemperatureF,Dew PointF,Humidity,Sea Level PressureIn,VisibilityMPH,Wind Direction,Wind SpeedMPH,Gust SpeedMPH,PrecipitationIn,Events,Conditions,WindDirDegrees,DateUTC
12:20 AM,69.8,53.6,56,29.92,-9999.0,West,4.6,-,N/A,,Clear,280,2012-10-11 22:20:00
12:50 AM,69.8,53.6,56,29.92,-9999.0,WNW,4.6,-,N/A,,Clear,300,2012-10-11 22:50:00
1:20 AM,68.0,53.6,60,29.92,-9999.0,West,4.6,-,N/A,,Clear,260,2012-10-11 23:20:00
1:50 AM,66.2,53.6,64,29.92,-9999.0,West,4.6,-,N/A,,Clear,270,2012-10-11 23:50:00
2:20 AM,68.0,55.4,64,29.92,-9999.0,West,6.9,-,N/A,,Clear,280,2012-10-12 00:20:00
2:50 AM,68.0,57.2,68,29.92,-9999.0,West,5.8,-,N/A,,Clear,260,2012-10-12 00:50:00
3:50 AM,66.2,59.0,78,29.89,-9999.0,West,4.6,-,N/A,,Clear,270,2012-10-12 01:50:00
4:20 AM,66.2,59.0,78,29.89,-9999.0,WSW,4.6,-,N/A,,Clear,250,2012-10-12 02:20:00
4:50 AM,66.2,59.0,78,29.89,-9999.0,Variable,2.3,-,N/A,,Clear,0,2012-10-12 02:50:00
5:20 AM,66.2,57.2,73,29.89,-9999.0,Variable,2.3,-,N/A,,Clear,0,2012-10-12 03:20:00
5:50 AM,64.4,55.4,73,29.89,-9999.0,WSW,6.9,-,N/A,,Clear,240,2012-10-12 03:50:00
6:20 AM,64.4,55.4,73,29.89,6.2,WSW,3.5,-,N/A,,Scattered Clouds,250,2012-10-12 04:20:00
6:50 AM,64.4,55.4,73,29.89,6.2,WSW,6.9,-,N/A,,Mostly Cloudy,240,2012-10-12 04:50:00
7:20 AM,62.6,53.6,72,29.89,6.2,WSW,5.8,-,N/A,,Partly Cloudy,240,2012-10-12 05:20:00
7:50 AM,64.4,55.4,73,29.92,-9999.0,West,5.8,-,N/A,,Clear,260,2012-10-12 05:50:00
8:20 AM,68.0,55.4,64,29.92,-9999.0,WSW,5.8,-,N/A,,Clear,250,2012-10-12 06:20:00
8:50 AM,71.6,53.6,53,29.92,-9999.0,WSW,8.1,-,N/A,,Clear,250,2012-10-12 06:50:00
9:20 AM,73.4,57.2,57,29.95,-9999.0,West,9.2,-,N/A,,Clear,260,2012-10-12 07:20:00
9:50 AM,75.2,59.0,57,29.95,-9999.0,WSW,11.5,-,N/A,,Clear,250,2012-10-12 07:50:00
10:20 AM,77.0,57.2,50,29.92,-9999.0,WSW,12.7,-,N/A,,Clear,250,2012-10-12 08:20:00
10:50 AM,78.8,55.4,44,29.92,-9999.0,WSW,15.0,-,N/A,,Clear,250,2012-10-12 08:50:00
11:20 AM,80.6,55.4,42,29.92,-9999.0,West,13.8,-,N/A,,Clear,260,2012-10-12 09:20:00
11:50 AM,82.4,55.4,39,29.92,6.2,West,13.8,-,N/A,,Partly Cloudy,270,2012-10-12 09:50:00
12:20 PM,84.2,57.2,40,29.92,6.2,West,13.8,-,N/A,,Scattered Clouds,260,2012-10-12 10:20:00
12:50 PM,84.2,57.2,40,29.92,6.2,WSW,17.3,-,N/A,,Scattered Clouds,240,2012-10-12 10:50:00
1:20 PM,84.2,55.4,37,29.92,6.2,WSW,17.3,-,N/A,,Scattered Clouds,250,2012-10-12 11:20:00
1:50 PM,82.4,57.2,42,29.92,6.2,WSW,17.3,-,N/A,,Scattered Clouds,240,2012-10-12 11:50:00
2:20 PM,82.4,57.2,42,29.92,6.2,WSW,17.3,-,N/A,,Scattered Clouds,240,2012-10-12 12:20:00
2:50 PM,80.6,57.2,45,29.92,6.2,WSW,20.7,-,N/A,,Scattered Clouds,240,2012-10-12 12:50:00
3:20 PM,75.2,62.6,65,29.95,6.2,West,16.1,-,N/A,Rain,Light Rain,260,2012-10-12 13:20:00
3:50 PM,68.0,60.8,78,29.95,5.0,WSW,11.5,-,N/A,Rain,Light Rain,250,2012-10-12 13:50:00
4:20 PM,68.0,60.8,78,29.92,5.0,West,9.2,-,N/A,Rain,Light Rain,260,2012-10-12 14:20:00
4:50 PM,66.2,60.8,83,29.92,6.2,WSW,9.2,-,N/A,,Mostly Cloudy,250,2012-10-12 14:50:00
5:20 PM,68.0,59.0,73,29.92,6.2,West,9.2,-,N/A,,Mostly Cloudy,270,2012-10-12 15:20:00
5:50 PM,69.8,60.8,73,29.92,6.2,WSW,8.1,-,N/A,,Scattered Clouds,250,2012-10-12 15:50:00
6:20 PM,69.8,62.6,78,29.92,6.2,WSW,9.2,-,N/A,,Partly Cloudy,250,2012-10-12 16:20:00
6:50 PM,68.0,62.6,83,29.92,6.2,WSW,10.4,-,N/A,,Scattered Clouds,240,2012-10-12 16:50:00
7:20 PM,68.0,62.6,83,29.92,6.2,West,9.2,-,N/A,,Scattered Clouds,260,2012-10-12 17:20:00
7:50 PM,66.2,60.8,83,29.92,6.2,WSW,11.5,-,N/A,,Scattered Clouds,240,2012-10-12 17:50:00
8:50 PM,66.2,59.0,78,29.92,6.2,WSW,8.1,-,N/A,,Partly Cloudy,240,2012-10-12 18:50:00
9:20 PM,66.2,57.2,73,29.95,6.2,SW,5.8,-,N/A,,Partly Cloudy,220,2012-10-12 19:20:00
9:50 PM,64.4,57.2,77,29.95,6.2,SW,6.9,-,N/A,,Partly Cloudy,230,2012-10-12 19:50:00
10:20 PM,64.4,57.2,77,29.95,6.2,WSW,8.1,-,N/A,,Partly Cloudy,250,2012-10-12 20:20:00
10:50 PM,64.4,59.0,83,29.95,6.2,West,9.2,-,N/A,,Partly Cloudy,260,2012-10-12 20:50:00
11:20 PM,66.2,57.2,73,29.95,6.2,West,10.4,-,N/A,,Partly Cloudy,270,2012-10-12 21:20:00
11:50 PM,68.0,57.2,68,29.95,6.2,West,9.2,-,N/A,,Partly Cloudy,260,2012-10-12 21:50:00